Location: Unspecified
(0.0000°N, 0.0000°E)
Time: 11:58:08
(UTC+00:00)

ISS - Pass Details

Date: 20 May 2018
Orbit: 402 x 407 km, 51.6° (Epoch: 20 May)

Event Time Altitude Azimuth Distance (km) Brightness Sun altitude
Rises 19:20:13 0° 249° (WSW) 2,316 0.8 -19.6°
Reaches altitude 10° 19:23:24 10° 283° (WNW) 1,452 0.2 -20.3°
Maximum altitude 19:24:39 12° 306° (NW) 1,350 -0.1 -20.6°
Drops below altitude 10° 19:25:54 10° 329° (NNW) 1,448 -0.3 -20.9°
Sets 19:29:04 0° 3° (N) 2,300 0.2 -21.6°
